• In Uzbekistan
  • List of Countries
  • For 7 days
  • Water Temperature
  • Satellite Maps
  • Weather Map
  • Weather Widgets
  • user-avatar
    Login

    Hourly Weather Mauritius

    Today, 21 January, Sunday

    Time Temperature Precipitation Wind Pressure Humidity
    00:00 +26°C° 0.1 mm 1 mps 721 mmHg 84%
    01:00 +26°C° 0.1 mm 1 mps 720 mmHg 84%
    02:00 +26°C° 0.1 mm 1 mps 720 mmHg 85%
    03:00 +26°C° 0.1 mm 1 mps 720 mmHg 85%
    04:00 +25°C° 0.1 mm 1 mps 720 mmHg 86%
    05:00 +26°C° 0 mm 1 mps 720 mmHg 86%
    06:00 +26°C° 0 mm 1 mps 720 mmHg 85%
    07:00 +26°C° 0 mm 2 mps 720 mmHg 85%
    08:00 +26°C° 0 mm 2 mps 720 mmHg 82%
    09:00 +27°C° 0 mm 2 mps 720 mmHg 78%
    10:00 +28°C° 0 mm 2 mps 720 mmHg 74%
    11:00 +28°C° 0 mm 2 mps 720 mmHg 73%
    12:00 +28°C° 0 mm 2 mps 720 mmHg 72%
    13:00 +29°C° 0 mm 2 mps 720 mmHg 71%
    14:00 +28°C° 0.3 mm 2 mps 719 mmHg 73%
    15:00 +28°C° 0.3 mm 2 mps 719 mmHg 74%
    16:00 +28°C° 0.3 mm 2 mps 719 mmHg 75%
    17:00 +27°C° 0.6 mm 2 mps 719 mmHg 77%
    18:00 +27°C° 0.6 mm 2 mps 719 mmHg 79%
    19:00 +27°C° 0.6 mm 2 mps 719 mmHg 81%
    20:00 +26°C° 0.2 mm 2 mps 719 mmHg 82%
    21:00 +26°C° 0.2 mm 2 mps 720 mmHg 83%
    22:00 +26°C° 0.2 mm 2 mps 720 mmHg 84%
    23:00 +26°C° 0 mm 2 mps 720 mmHg 85%

    Tomorrow, 22 January, Monday

    Time Temperature Precipitation Wind Pressure Humidity
    00:00 +26°C° 0 mm 2 mps 719 mmHg 85%
    01:00 +26°C° 0 mm 2 mps 719 mmHg 86%
    02:00 +26°C° 0 mm 2 mps 719 mmHg 86%
    03:00 +25°C° 0 mm 2 mps 718 mmHg 86%
    04:00 +25°C° 0 mm 2 mps 718 mmHg 87%
    05:00 +25°C° 0 mm 2 mps 718 mmHg 86%
    06:00 +26°C° 0 mm 2 mps 719 mmHg 86%
    07:00 +26°C° 0 mm 3 mps 719 mmHg 85%
    08:00 +26°C° 0 mm 3 mps 719 mmHg 82%
    09:00 +27°C° 0 mm 3 mps 719 mmHg 79%
    10:00 +28°C° 0 mm 2 mps 720 mmHg 76%
    11:00 +28°C° 0.6 mm 2 mps 719 mmHg 75%
    12:00 +28°C° 0.6 mm 2 mps 719 mmHg 75%
    13:00 +28°C° 0.6 mm 2 mps 719 mmHg 74%
    14:00 +28°C° 0.8 mm 2 mps 718 mmHg 74%
    15:00 +28°C° 0.8 mm 2 mps 718 mmHg 74%
    16:00 +28°C° 0.8 mm 2 mps 718 mmHg 75%
    17:00 +28°C° 0.3 mm 2 mps 718 mmHg 77%
    18:00 +27°C° 0.3 mm 2 mps 718 mmHg 79%
    19:00 +27°C° 0.3 mm 3 mps 718 mmHg 81%
    20:00 +26°C° 0 mm 3 mps 719 mmHg 83%
    21:00 +26°C° 0 mm 3 mps 719 mmHg 84%
    22:00 +26°C° 0 mm 3 mps 719 mmHg 86%
    23:00 +26°C° 0.1 mm 2 mps 719 mmHg 86%

    Day after tomorrow, 23 January, Tuesday

    Time Temperature Precipitation Wind Pressure Humidity
    00:00 +26°C° 0.1 mm 2 mps 719 mmHg 86%
    01:00 +26°C° 0.1 mm 2 mps 718 mmHg 87%
    02:00 +25°C° 0.1 mm 2 mps 718 mmHg 87%
    03:00 +25°C° 0.1 mm 2 mps 718 mmHg 87%
    04:00 +25°C° 0.1 mm 1 mps 718 mmHg 87%
    05:00 +25°C° 0 mm 1 mps 718 mmHg 86%
    06:00 +26°C° 0 mm 1 mps 718 mmHg 86%
    07:00 +26°C° 0 mm 1 mps 719 mmHg 85%
    08:00 +27°C° 0 mm 1 mps 719 mmHg 81%
    09:00 +27°C° 0 mm 1 mps 719 mmHg 77%
    10:00 +28°C° 0 mm 1 mps 719 mmHg 73%
    11:00 +28°C° 0.2 mm 1 mps 719 mmHg 74%
    12:00 +28°C° 0.2 mm 1 mps 719 mmHg 74%
    13:00 +28°C° 0.2 mm 1 mps 718 mmHg 75%
    14:00 +28°C° 0.3 mm 1 mps 718 mmHg 75%
    15:00 +28°C° 0.3 mm 1 mps 718 mmHg 76%
    16:00 +28°C° 0.3 mm 1 mps 717 mmHg 77%
    17:00 +27°C° 0.1 mm 2 mps 718 mmHg 78%
    18:00 +27°C° 0.1 mm 2 mps 718 mmHg 80%
    19:00 +27°C° 0.1 mm 2 mps 718 mmHg 81%
    20:00 +27°C° 0.1 mm 2 mps 719 mmHg 82%
    21:00 +26°C° 0.1 mm 2 mps 719 mmHg 83%
    22:00 +26°C° 0.1 mm 2 mps 720 mmHg 84%
    23:00 +26°C° 0 mm 1 mps 719 mmHg 84%

    24 January, Wednesday

    Time Temperature Precipitation Wind Pressure Humidity
    00:00 +26°C° 0 mm 1 mps 719 mmHg 85%
    01:00 +26°C° 0 mm 1 mps 718 mmHg 85%
    02:00 +26°C° 0 mm 1 mps 718 mmHg 85%
    03:00 +26°C° 0 mm 1 mps 718 mmHg 85%
    04:00 +26°C° 0 mm 1 mps 718 mmHg 85%
    05:00 +26°C° 0.1 mm 1 mps 718 mmHg 84%
    06:00 +26°C° 0.1 mm 1 mps 719 mmHg 83%
    07:00 +26°C° 0.1 mm 2 mps 719 mmHg 83%
    08:00 +27°C° 0.3 mm 2 mps 719 mmHg 80%
    09:00 +28°C° 0.3 mm 2 mps 719 mmHg 76%
    10:00 +28°C° 0.3 mm 2 mps 720 mmHg 73%
    11:00 +28°C° 0.3 mm 3 mps 719 mmHg 72%
    12:00 +29°C° 0.3 mm 3 mps 719 mmHg 71%
    13:00 +29°C° 0.3 mm 3 mps 719 mmHg 70%
    14:00 +28°C° 0.6 mm 3 mps 718 mmHg 72%
    15:00 +28°C° 0.6 mm 3 mps 718 mmHg 74%
    16:00 +28°C° 0.6 mm 3 mps 718 mmHg 76%
    17:00 +27°C° 1 mm 2 mps 718 mmHg 78%
    18:00 +27°C° 1 mm 2 mps 718 mmHg 80%
    19:00 +26°C° 1 mm 2 mps 719 mmHg 82%
    20:00 +26°C° 0.6 mm 1 mps 719 mmHg 82%
    21:00 +26°C° 0.6 mm 1 mps 720 mmHg 82%
    22:00 +26°C° 0.6 mm 1 mps 720 mmHg 83%
    23:00 +26°C° 0.1 mm 1 mps 720 mmHg 83%

    25 January, Thursday

    Time Temperature Precipitation Wind Pressure Humidity
    00:00 +26°C° 0.1 mm 2 mps 719 mmHg 83%
    01:00 +26°C° 0.1 mm 2 mps 719 mmHg 84%
    02:00 +25°C° 0 mm 2 mps 719 mmHg 83%
    03:00 +25°C° 0 mm 2 mps 719 mmHg 83%
    04:00 +25°C° 0 mm 2 mps 718 mmHg 83%
    05:00 +25°C° 0 mm 3 mps 719 mmHg 82%
    06:00 +25°C° 0 mm 3 mps 719 mmHg 80%
    07:00 +26°C° 0 mm 3 mps 720 mmHg 79%
    08:00 +26°C° 0 mm 4 mps 720 mmHg 77%
    09:00 +27°C° 0 mm 4 mps 720 mmHg 75%
    10:00 +28°C° 0 mm 4 mps 720 mmHg 73%
    11:00 +28°C° 0.4 mm 4 mps 720 mmHg 73%
    12:00 +28°C° 0.4 mm 4 mps 719 mmHg 74%
    13:00 +28°C° 0.4 mm 4 mps 719 mmHg 75%
    14:00 +28°C° 1.1 mm 4 mps 719 mmHg 76%
    15:00 +28°C° 1.1 mm 4 mps 719 mmHg 76%
    16:00 +28°C° 1.1 mm 4 mps 719 mmHg 77%
    17:00 +27°C° 1.1 mm 4 mps 719 mmHg 79%
    18:00 +27°C° 1.1 mm 4 mps 719 mmHg 81%
    19:00 +26°C° 1.1 mm 4 mps 720 mmHg 83%
    20:00 +26°C° 0.5 mm 4 mps 720 mmHg 84%
    21:00 +26°C° 0.5 mm 4 mps 720 mmHg 85%
    22:00 +26°C° 0.5 mm 4 mps 721 mmHg 86%
    23:00 +25°C° 0 mm 5 mps 720 mmHg 86%

    26 January, Friday

    Time Temperature Precipitation Wind Pressure Humidity
    00:00 +25°C° 0 mm 5 mps 720 mmHg 85%
    01:00 +25°C° 0 mm 5 mps 720 mmHg 85%
    02:00 +25°C° 0 mm 5 mps 720 mmHg 84%
    03:00 +25°C° 0 mm 4 mps 720 mmHg 84%
    04:00 +25°C° 0 mm 4 mps 720 mmHg 83%
    05:00 +25°C° 0 mm 4 mps 720 mmHg 82%
    06:00 +25°C° 0 mm 4 mps 720 mmHg 82%
    07:00 +25°C° 0 mm 4 mps 721 mmHg 82%
    08:00 +26°C° 0 mm 4 mps 721 mmHg 80%
    09:00 +26°C° 0 mm 4 mps 721 mmHg 78%
    10:00 +27°C° 0 mm 4 mps 721 mmHg 76%
    11:00 +27°C° 0 mm 4 mps 721 mmHg 76%
    12:00 +27°C° 0 mm 4 mps 720 mmHg 76%
    13:00 +28°C° 0 mm 4 mps 720 mmHg 77%
    14:00 +28°C° 0.1 mm 5 mps 720 mmHg 77%
    15:00 +28°C° 0.1 mm 5 mps 720 mmHg 78%
    16:00 +28°C° 0.1 mm 5 mps 719 mmHg 78%
    17:00 +27°C° 0.2 mm 5 mps 720 mmHg 80%
    18:00 +27°C° 0.2 mm 5 mps 720 mmHg 82%
    19:00 +26°C° 0.2 mm 6 mps 720 mmHg 84%
    20:00 +26°C° 0.1 mm 6 mps 720 mmHg 84%
    21:00 +26°C° 0.1 mm 6 mps 721 mmHg 84%
    22:00 +26°C° 0.1 mm 6 mps 721 mmHg 84%
    23:00 +26°C° 0 mm 6 mps 720 mmHg 85%
    Show more